{"data":{"norad_id":61920,"intl_designator":"2024-207J","name":"STARLINK-32616","alt_names":[],"object_type":"PAYLOAD","status":"ACTIVE","operator":null,"country":"US","launch_date":"2024-11-11","launch_site_code":"AFETR","launch_vehicle":null,"mission":null,"orbit_class":"UNKNOWN","rcs_meters":null,"size_class":null,"mass_kg":null,"dimensions":null,"purposes":["comms"],"wikipedia_slug":null,"has_3d_model":false,"image_url":null,"decayed_at":null,"tle_current":{"epoch":"2026-05-25T04:56:50.508096Z","epoch_age_seconds":57275,"freshness":"FRESH","line1":"1 61920U 24207J   26145.20614014  .00013434  00000+0  49674-3 0  9996","line2":"2 61920  42.9986 209.6704 0001155 271.5486  88.5234 15.27585468 86422","mean_motion":15.27585468,"eccentricity":0.0001155,"inclination_deg":42.9986,"raan_deg":209.6704,"arg_perigee_deg":271.5486,"mean_anomaly_deg":88.5234,"bstar":0.00049674,"rev_number":8642,"period_min":94.266411285342,"perigee_km":482.24025782639,"apogee_km":483.82518803239,"semimajor_km":6861.1697229294,"source":"CELESTRAK","updated_at":"2026-05-25T13:38:19.481943Z"}}}